Weather History for Fayetteville, AR

Change the Weather History Date:

Saturday, June 29, 2013

  Actual Average Record
Temperature  
Mean Temperature 74 °F 76 °F  
Max Temperature 87 °F 87 °F 100 °F (1952)
Min Temperature 60 °F 65 °F 51 °F (1985)
Cooling Degree Days 9 11  
Month to date cooling degree days 288 233  
Year to date cooling degree days 424 346  
Since 1 June cooling degree days 288 233  
Growing Degree Days 23 (Base 50)    
Moisture  
Dew Point 55 °F    
Average Humidity 63    
Maximum Humidity 97    
Minimum Humidity 29    
Precipitation  
Precipitation 0.00 in 0.16 in 2.40 in (1951)
Month to date precipitation 1.37 4.83  
Year to date precipitation 25.47 25.04  
Sea Level Pressure  
Sea Level Pressure 29.84 in    
Wind  
Wind Speed 9 mph (NW)    
Max Wind Speed 24 mph    
Max Gust Speed 30 mph    
Visibility 10 miles    
Events      
T = Trace of Precipitation, MM = Missing Value Source: NWS Daily Summary

Daily Weather History Graph

Daily Weather History Graph

Search for Another Location

Airport:

Trip Planner

Search our weather history database for the weather conditions in past years. The results will help you decide how hot, cold, wet, or windy it might be!

Date:

Astronomy

Jun. 29, 2013 Rise Set
Actual Time 6:02 AM CDT 8:37 PM CDT
Civil Twilight 5:32 AM CDT 9:07 PM CDT
Nautical Twilight 4:55 AM CDT 9:45 PM CDT
Astronomical Twilight 4:13 AM CDT 10:26 PM CDT
Moon 12:19 AM CDT (6/29) 1:01 PM CDT (6/29)
Length of Visible Light 15h 35m
Length of Day
14h 34m
Waning Gibbous, 55% of the Moon is Illuminated
Jun 29
Waning Gibbous
Jun 29
Last Quarter
Jul 8
New
Jul 15
First Quarter
Jul 22
Full

Hourly Weather History & Observations

Time (CDT) Temp. Heat Index Dew Point Humidity Pressure Visibility Wind Dir Wind Speed Gust Speed Precip Events Conditions
12:53 AM 73.0 °F - 59.0 °F 61% 29.85 in 10.0 mi Calm Calm - N/A   Clear
1:53 AM 66.9 °F - 60.1 °F 79% 29.86 in 10.0 mi Calm Calm - N/A   Clear
2:53 AM 63.0 °F - 60.1 °F 90% 29.86 in 10.0 mi Calm Calm - N/A   Clear
3:53 AM 62.1 °F - 60.1 °F 93% 29.87 in 10.0 mi SSW 4.6 mph - N/A   Clear
4:53 AM 61.0 °F - 59.0 °F 93% 29.88 in 9.0 mi South 3.5 mph - N/A   Clear
5:53 AM 60.1 °F - 57.9 °F 93% 29.87 in 10.0 mi South 3.5 mph - N/A   Clear
6:53 AM 62.1 °F - 59.0 °F 90% 29.87 in 10.0 mi South 4.6 mph - N/A   Clear
7:53 AM 68.0 °F - 61.0 °F 78% 29.87 in 10.0 mi Calm Calm - N/A   Clear
8:53 AM 75.0 °F - 59.0 °F 57% 29.87 in 10.0 mi NNW 11.5 mph - N/A   Clear
9:53 AM 79.0 °F - 57.0 °F 47% 29.87 in 10.0 mi NNW 12.7 mph 19.6 mph N/A   Clear
10:53 AM 82.0 °F 81.3 °F 54.0 °F 38% 29.86 in 10.0 mi NNW 17.3 mph 24.2 mph N/A   Clear
11:53 AM 84.0 °F 82.5 °F 53.1 °F 34% 29.86 in 10.0 mi NNW 16.1 mph 24.2 mph N/A   Partly Cloudy
12:53 PM 84.9 °F - 52.0 °F 32% 29.84 in 10.0 mi NNW 11.5 mph 27.6 mph N/A   Partly Cloudy
1:53 PM 86.0 °F 84.5 °F 55.0 °F 35% 29.83 in 10.0 mi NW 15.0 mph 20.7 mph N/A   Scattered Clouds
2:53 PM 86.0 °F - 52.0 °F 31% 29.82 in 10.0 mi NNW 12.7 mph 23.0 mph N/A   Scattered Clouds
3:53 PM 86.0 °F - 51.1 °F 30% 29.81 in 10.0 mi NW 17.3 mph 27.6 mph N/A   Partly Cloudy
4:53 PM 86.0 °F - 50.0 °F 29% 29.80 in 10.0 mi NW 17.3 mph 29.9 mph N/A   Partly Cloudy
5:53 PM 84.0 °F - 48.0 °F 28% 29.80 in 10.0 mi NNW 19.6 mph 27.6 mph N/A   Clear
6:53 PM 82.9 °F - 48.9 °F 31% 29.79 in 10.0 mi NW 15.0 mph 23.0 mph N/A   Clear
7:53 PM 80.1 °F - 51.1 °F 36% 29.79 in 10.0 mi NNW 11.5 mph - N/A   Partly Cloudy
8:53 PM 75.9 °F - 52.0 °F 43% 29.79 in 10.0 mi North 3.5 mph - N/A   Clear
9:53 PM 73.0 °F - 52.0 °F 48% 29.81 in 10.0 mi North 3.5 mph - N/A   Clear
10:53 PM 72.0 °F - 52.0 °F 49% 29.81 in 10.0 mi North 3.5 mph - N/A   Clear
11:53 PM 70.0 °F - 52.0 °F 53% 29.82 in 10.0 mi North 3.5 mph - N/A   Clear